Weather in Kara

Togo     9°32′26″N   1°11′01″E
temp.,
°C
wind,
m/s
gust,
m/s
humid.,
%
clouds,
%
prec.,
mm/h
press.,
hPa
HPBL,
m
15 may, sat
sat1500:00+26s25661 0.1 1010145
03:00+25sse11740 0.0 100922
06:00+24sse12782 0.0 101183
09:00+31s225299 0.0 1012799
12:00+35s353870 0.0 10102330
15:00+35se353771 0.0 1007805
18:00+26nne4776100 0.9 1009368
21:00+22nnw2789100 18.9 1011225
16 may, sun
sun1600:00+23sse2384100 19.0 101097
03:00+24ssw2282100 0.1 101056
06:00+23w2485100 0.1 1011176
09:00+28w2363100 0.0 1012473
12:00+34sse0142100 0.0 10101345
15:00+35n233792 0.0 10071990
18:00+31wsw115171 0.0 100711
21:00+28s12625 0.1 101023
17 may, mon
mon1700:00+26s4107515 0.6 1011388
03:00+24s258341 0.1 1009164
06:00+24s228598 0.1 101174
09:00+30sw23605 0.0 1012765
12:00+35ssw224265 0.0 10102037
15:00+38ssw063128 0.0 10073074
18:00+32sw36465 0.0 1007169
21:00+28sw286526 0.0 1011342
18 may, tue
tue1800:00+27s39695 0.1 1011504
03:00+25ssw277878 0.0 1010331
06:00+24ssw148345 0.0 1012247
09:00+30sw34595 0.0 1013877
12:00+35sw334395 0.0 10111817
15:00+37w1435100 0.0 10082421
18:00+31sw5854100 0.0 1008498
21:00+25w3985100 1.9 1012414
19 may, wed
wed1900:00+24sw2585100 10.6 1012203
03:00+24s2286100 0.0 101171
06:00+24s2290100 0.0 1012101
09:00+29sw246332 0.0 1013627
12:00+35ssw3341100 0.0 10111681
15:00+36sse2336100 0.0 10082359
18:00+31se3752100 0.0 1009208
21:00+28wsw2365100 0.4 101185